Location: Antioch Baptist Church
(32.6696°N, 85.7327°W)
Time: 12:28:09
(UTC+00:00)

Cosmos-2242 - Pass Details

Date: 14 July 2020
Orbit: 592 x 616 km, 82.5° (Epoch: 08 August)

Event Time Altitude Azimuth Distance (km) Brightness Sun altitude
Rises 01:45:51 0° 358° (N) 2,880 7.1 -10.6°
Reaches altitude 10° 01:48:06 10° 1° (N) 1,975 6.1 -11.0°
Maximum altitude 01:52:26 61° 82° (E) 698 3.1 -11.7°
Enters shadow 01:56:25 12° 163° (SSE) 1,838 5.0 -12.4°
